Weather History for Paris / Charles De Gaulle, France

Change the Weather History Date:

Monday, June 10, 2013

  Actual Average Record
Temperature  
Mean Temperature 57 °F -  
Max Temperature 64 °F 72 °F 84 °F (1997)
Min Temperature 50 °F 55 °F 48 °F (2002)
Degree Days  
Heating Degree Days 8    
Growing Degree Days 7 (Base 50)    
Moisture  
Dew Point 51 °F    
Average Humidity 79    
Maximum Humidity 94    
Minimum Humidity 63    
Precipitation  
Precipitation 0.00 in - - ()
Sea Level Pressure  
Sea Level Pressure 29.94 in    
Wind  
Wind Speed 7 mph ()    
Max Wind Speed 12 mph    
Max Gust Speed -    
Visibility 5.6 miles    
Events      
Averages and records for this station are not official NWS values.
T = Trace of Precipitation, MM = Missing Value Source: Averaged Metar Reports

Daily Weather History Graph

Daily Weather History Graph

Search for Another Location

Airport:

Trip Planner

Search our weather history database for the weather conditions in past years. The results will help you decide how hot, cold, wet, or windy it might be!

Date:

Astronomy

Jun. 10, 2013 Rise Set
Actual Time 5:45 AM CEST 9:53 PM CEST
Civil Twilight 5:03 AM CEST 10:35 PM CEST
Nautical Twilight 4:03 AM CEST 11:35 PM CEST
Astronomical Twilight 2:21 AM CEST 1:17 AM CEST
Moon 7:28 AM CEST (6/10) 11:00 PM CEST (6/10)
Length of Visible Light 17h 32m
Length of Day
16h 07m
Waxing Crescent, 3% of the Moon is Illuminated
Jun 10
Waxing Crescent
Jun 16
First Quarter
Jun 23
Full
Jun 30
Last Quarter
Jul 8
New

Hourly Weather History & Observations

Time (CEST) Temp. Dew Point Humidity Pressure Visibility Wind Dir Wind Speed Gust Speed Precip Events Conditions
12:00 AM 55.4 °F 53.6 °F 94% 29.89 in 3.7 mi North 6.9 mph - N/A   Mostly Cloudy
12:30 AM 55.4 °F 53.6 °F 94% 29.89 in 4.3 mi North 6.9 mph - N/A   Mostly Cloudy
1:00 AM 55.4 °F 51.8 °F 88% 29.89 in 5.6 mi North 11.5 mph - N/A   Mostly Cloudy
1:30 AM 53.6 °F 50.0 °F 88% 29.89 in 5.6 mi North 11.5 mph - N/A   Mostly Cloudy
2:00 AM 53.6 °F 50.0 °F 88% 29.89 in 5.6 mi North 11.5 mph - N/A   Mostly Cloudy
2:30 AM 53.6 °F 50.0 °F 88% 29.89 in 5.6 mi North 11.5 mph - N/A   Mostly Cloudy
3:00 AM 51.8 °F 50.0 °F 94% 29.89 in 5.6 mi North 11.5 mph - N/A   Mostly Cloudy
3:30 AM 51.8 °F 48.2 °F 88% 29.89 in 5.6 mi North 11.5 mph - N/A   Mostly Cloudy
4:00 AM 51.8 °F 48.2 °F 88% 29.89 in 5.6 mi North 11.5 mph - N/A   Mostly Cloudy
4:30 AM 51.8 °F 48.2 °F 88% 29.89 in 5.6 mi North 10.4 mph - N/A   Mostly Cloudy
5:00 AM 51.8 °F 48.2 °F 88% 29.89 in 5.0 mi North 9.2 mph - N/A   Mostly Cloudy
5:30 AM 50.0 °F 48.2 °F 94% 29.92 in 5.0 mi North 8.1 mph - N/A   Mostly Cloudy
6:00 AM 50.0 °F 48.2 °F 94% 29.92 in 4.3 mi North 9.2 mph - N/A   Mostly Cloudy
6:30 AM 50.0 °F 48.2 °F 94% 29.92 in 4.3 mi Variable 8.1 mph - N/A   Mostly Cloudy
7:00 AM 51.8 °F 48.2 °F 88% 29.92 in 4.3 mi North 8.1 mph - N/A   Mostly Cloudy
7:30 AM 51.8 °F 48.2 °F 88% 29.92 in 4.3 mi North 6.9 mph - N/A   Mostly Cloudy
8:00 AM 51.8 °F 48.2 °F 88% 29.92 in 4.3 mi North 6.9 mph - N/A   Mostly Cloudy
8:30 AM 51.8 °F 48.2 °F 88% 29.92 in 4.3 mi North 5.8 mph - N/A   Mostly Cloudy
9:00 AM 51.8 °F 48.2 °F 88% 29.92 in 5.0 mi North 6.9 mph - N/A   Mostly Cloudy
9:30 AM 53.6 °F 50.0 °F 88% 29.95 in 5.0 mi North 5.8 mph - N/A   Mostly Cloudy
10:00 AM 53.6 °F 50.0 °F 88% 29.95 in 5.0 mi North 4.6 mph - N/A   Mostly Cloudy
10:30 AM 55.4 °F 50.0 °F 82% 29.95 in 5.0 mi North 4.6 mph - N/A   Mostly Cloudy
11:00 AM 57.2 °F 50.0 °F 77% 29.95 in 5.6 mi NNE 3.5 mph - N/A   Mostly Cloudy
11:30 AM 59.0 °F 51.8 °F 77% 29.95 in 6.2 mi North 3.5 mph - N/A   Mostly Cloudy
12:00 PM 59.0 °F 51.8 °F 77% 29.95 in 6.2 mi North 4.6 mph - N/A   Mostly Cloudy
12:30 PM 59.0 °F 51.8 °F 77% 29.98 in 6.2 mi North 5.8 mph - N/A   Mostly Cloudy
1:00 PM 60.8 °F 51.8 °F 72% 29.98 in 6.2 mi NNE 5.8 mph - N/A   Mostly Cloudy
1:30 PM 60.8 °F 50.0 °F 68% 29.98 in 6.2 mi North 5.8 mph - N/A   Mostly Cloudy
2:00 PM 62.6 °F 50.0 °F 63% 29.98 in 6.2 mi NNE 5.8 mph - N/A   Mostly Cloudy
2:30 PM 62.6 °F 51.8 °F 68% 29.98 in 6.2 mi North 5.8 mph - N/A   Mostly Cloudy
3:00 PM 62.6 °F 51.8 °F 68% 29.98 in 6.2 mi NNE 5.8 mph - N/A   Mostly Cloudy
3:30 PM 62.6 °F 51.8 °F 68% 29.98 in 6.2 mi NNE 3.5 mph - N/A   Mostly Cloudy
4:00 PM 64.4 °F 51.8 °F 64% 29.98 in 6.2 mi North 3.5 mph - N/A   Mostly Cloudy
4:30 PM 64.4 °F 51.8 °F 64% 29.98 in 6.2 mi Variable 3.5 mph - N/A   Mostly Cloudy
5:00 PM 64.4 °F 51.8 °F 64% 29.98 in 6.2 mi Variable 3.5 mph - N/A   Scattered Clouds
5:30 PM 64.4 °F 51.8 °F 64% 29.95 in 6.2 mi Variable 2.3 mph - N/A   Scattered Clouds
6:00 PM 64.4 °F 51.8 °F 64% 29.95 in 6.2 mi Variable 3.5 mph - N/A   Scattered Clouds
6:30 PM 64.4 °F 51.8 °F 64% 29.95 in 6.2 mi Variable 3.5 mph - N/A   Scattered Clouds
7:00 PM 64.4 °F 51.8 °F 64% 29.95 in 6.2 mi Variable 2.3 mph - N/A   Scattered Clouds
7:30 PM 64.4 °F 51.8 °F 64% 29.95 in 6.2 mi NNE 4.6 mph - N/A   Scattered Clouds
8:00 PM 64.4 °F 51.8 °F 64% 29.95 in 6.2 mi NE 4.6 mph - N/A   Partly Cloudy
8:30 PM 64.4 °F 51.8 °F 64% 29.95 in 6.2 mi ENE 6.9 mph - N/A   Partly Cloudy
9:00 PM 62.6 °F 51.8 °F 68% 29.98 in 6.2 mi ENE 6.9 mph - N/A   Partly Cloudy
9:30 PM 60.8 °F 51.8 °F 72% 29.98 in 6.2 mi ENE 5.8 mph - N/A   Partly Cloudy
10:00 PM 59.0 °F 51.8 °F 77% 29.98 in 6.2 mi NE 5.8 mph - N/A   Scattered Clouds
10:30 PM 59.0 °F 51.8 °F 77% 29.98 in 6.2 mi East 5.8 mph - N/A   Mostly Cloudy
11:00 PM 59.0 °F 51.8 °F 77% 29.98 in 6.2 mi ENE 6.9 mph - N/A   Mostly Cloudy
11:30 PM 57.2 °F 50.0 °F 77% 30.01 in 6.2 mi ENE 5.8 mph - N/A   Mostly Cloudy